TimeEDT,TemperatureF,Dew PointF,Humidity,Sea Level PressureIn,VisibilityMPH,Wind Direction,Wind SpeedMPH,Gust SpeedMPH,PrecipitationIn,Events,Conditions,WindDirDegrees,DateUTC
12:53 AM,57.0,42.1,57,30.34,10.0,NE,8.1,18.4,N/A,,Clear,40,2013-10-09 04:53:00
1:53 AM,57.0,43.0,59,30.35,10.0,ENE,12.7,20.7,N/A,,Clear,60,2013-10-09 05:53:00
2:53 AM,57.0,42.1,57,30.35,10.0,ENE,19.6,23.0,N/A,,Clear,60,2013-10-09 06:53:00
3:53 AM,55.9,41.0,57,30.35,10.0,NE,15.0,20.7,N/A,,Clear,50,2013-10-09 07:53:00
4:53 AM,55.9,42.1,60,30.36,10.0,NE,12.7,23.0,N/A,,Clear,50,2013-10-09 08:53:00
5:53 AM,55.9,43.0,62,30.35,10.0,ENE,13.8,23.0,N/A,,Clear,60,2013-10-09 09:53:00
6:53 AM,55.9,43.0,62,30.37,10.0,NE,15.0,21.9,N/A,,Mostly Cloudy,50,2013-10-09 10:53:00
7:53 AM,57.9,44.1,60,30.38,10.0,NE,19.6,24.2,N/A,,Mostly Cloudy,50,2013-10-09 11:53:00
8:53 AM,60.1,45.0,57,30.40,10.0,East,16.1,23.0,N/A,,Mostly Cloudy,80,2013-10-09 12:53:00
9:53 AM,62.1,45.0,53,30.40,10.0,ENE,18.4,31.1,N/A,,Scattered Clouds,70,2013-10-09 13:53:00
10:53 AM,63.0,45.0,52,30.40,10.0,ENE,19.6,29.9,N/A,,Mostly Cloudy,70,2013-10-09 14:53:00
11:53 AM,62.1,45.0,53,30.41,10.0,East,18.4,26.5,N/A,,Mostly Cloudy,80,2013-10-09 15:53:00
12:53 PM,63.0,45.0,52,30.40,10.0,ENE,19.6,27.6,N/A,,Clear,70,2013-10-09 16:53:00
1:53 PM,63.0,45.0,52,30.38,10.0,ENE,17.3,-,N/A,,Clear,70,2013-10-09 17:53:00
2:53 PM,61.0,45.0,56,30.38,10.0,ENE,19.6,25.3,N/A,,Clear,70,2013-10-09 18:53:00
3:53 PM,61.0,45.0,56,30.38,10.0,ENE,17.3,25.3,N/A,,Clear,70,2013-10-09 19:53:00
4:53 PM,59.0,45.0,60,30.37,10.0,ENE,16.1,21.9,N/A,,Clear,70,2013-10-09 20:53:00
5:53 PM,57.0,44.1,62,30.37,10.0,ENE,11.5,-,N/A,,Clear,60,2013-10-09 21:53:00
6:53 PM,55.9,44.1,64,30.36,10.0,ENE,9.2,-,N/A,,Clear,70,2013-10-09 22:53:00
7:53 PM,55.0,44.1,67,30.35,10.0,ENE,8.1,-,N/A,,Clear,70,2013-10-09 23:53:00
8:53 PM,55.9,43.0,62,30.34,10.0,ENE,12.7,-,N/A,,Clear,60,2013-10-10 00:53:00
9:53 PM,55.9,45.0,67,30.34,10.0,ENE,11.5,-,N/A,,Clear,70,2013-10-10 01:53:00
10:53 PM,55.9,46.0,69,30.34,10.0,ENE,13.8,-,N/A,,Clear,60,2013-10-10 02:53:00
11:53 PM,55.9,48.0,75,30.33,10.0,ENE,10.4,-,N/A,,Clear,60,2013-10-10 03:53:00